Columbia, CA

6:42 PM PST on February 12, 2016 (GMT -0800)
Columbia Airport

Weather History for KO22 - October, 2013

Change the Weather History Date:

Thursday, October 24, 2013

  Actual Average (KMOD) Record (KMOD)
Temperature  
Mean Temperature 60 °F -  
Max Temperature 77 °F 76 °F 93 °F (1959)
Min Temperature 44 °F 51 °F 35 °F (1935)
Degree Days  
Heating Degree Days 4 3  
Month to date heating degree days 32  
Since 1 July heating degree days 35  
Cooling Degree Days 0 1  
Month to date cooling degree days 79  
Year to date cooling degree days 1691  
Growing Degree Days 10 (Base 50)    
Moisture  
Dew Point 32 °F    
Average Humidity 43    
Maximum Humidity 71    
Minimum Humidity 16    
Precipitation  
Precipitation 0.00 in 0.02 in 1.36 in (1998)
Month to date precipitation 0.45  
Year to date precipitation 9.48  
Snow  
Snow 0.00 in - 0.00 in (2002)
Month to date snowfall  
Since 1 July snowfall  
Since 1 September snowfall  
Snow Depth -    
Sea Level Pressure  
Sea Level Pressure 30.01 in    
Wind  
Wind Speed 1 mph (WSW)    
Max Wind Speed 8 mph    
Max Gust Speed -    
Visibility 10 miles    
Events      
T = Trace of Precipitation, MM = Missing Value Source: NWS Daily Summary

Daily Weather History Graph

Daily Weather History Graph

Search for Another Location

Airport or City:

Trip Planner

Search our weather history database for the weather conditions in past years. The results will help you decide how hot, cold, wet, or windy it might be!

Date:

Astronomy

Oct. 24, 2013 Rise Set
Actual Time 7:19 AM PDT 6:11 PM PDT
Civil Twilight 6:52 AM PDT 6:38 PM PDT
Nautical Twilight 6:21 AM PDT 7:09 PM PDT
Astronomical Twilight 5:51 AM PDT 7:39 PM PDT
Moon 10:42 PM PDT (10/24) 12:21 PM PDT (10/24)
Length of Visible Light 11h 45m
Length of Day
10h 52m
Waning Gibbous, 70% of the Moon is Illuminated
Oct 24
Waning Gibbous
Oct 26
Last Quarter
Nov 3
New
Nov 9
First Quarter
Nov 17
Full

Hourly Weather History & Observations

Time (PDT) Temp. Dew Point Humidity Pressure Visibility Wind Dir Wind Speed Gust Speed Precip Events Conditions
12:15 AM 48.2 °F 32.0 °F 54% 29.97 in 10.0 mi Calm Calm - N/A   Clear
12:35 AM 48.2 °F 32.0 °F 54% 29.97 in 10.0 mi Calm Calm - N/A   Clear
12:55 AM 46.4 °F 32.0 °F 57% 29.97 in 10.0 mi Calm Calm - N/A   Clear
1:15 AM 46.4 °F 32.0 °F 57% 29.97 in 10.0 mi Calm Calm - N/A   Clear
1:35 AM 46.4 °F 32.0 °F 57% 29.97 in 10.0 mi Calm Calm - N/A   Clear
1:55 AM 46.4 °F 32.0 °F 57% 29.97 in 10.0 mi Calm Calm - N/A   Clear
2:15 AM 46.4 °F 32.0 °F 57% 29.97 in 10.0 mi Calm Calm - N/A   Clear
2:35 AM 46.4 °F 30.2 °F 53% 29.97 in 10.0 mi Calm Calm - N/A   Clear
2:55 AM 46.4 °F 30.2 °F 53% 29.98 in 10.0 mi Calm Calm - N/A   Clear
3:15 AM 46.4 °F 30.2 °F 53% 29.98 in 10.0 mi Calm Calm - N/A   Clear
3:35 AM 46.4 °F 30.2 °F 53% 29.98 in 10.0 mi Calm Calm - N/A   Clear
3:55 AM 44.6 °F 30.2 °F 57% 29.98 in 10.0 mi Calm Calm - N/A   Clear
4:15 AM 44.6 °F 30.2 °F 57% 29.98 in 10.0 mi Calm Calm - N/A   Clear
4:35 AM 44.6 °F 32.0 °F 61% 29.98 in 10.0 mi Calm Calm - N/A   Clear
4:55 AM 44.6 °F 32.0 °F 61% 29.98 in 10.0 mi Calm Calm - N/A   Clear
5:15 AM 44.6 °F 32.0 °F 61% 29.98 in 10.0 mi Calm Calm - N/A   Clear
5:35 AM 44.6 °F 32.0 °F 61% 29.98 in 10.0 mi Calm Calm - N/A   Clear
5:55 AM 44.6 °F 30.2 °F 57% 29.98 in 10.0 mi Calm Calm - N/A   Clear
6:15 AM 44.6 °F 30.2 °F 57% 29.98 in 10.0 mi Calm Calm - N/A   Clear
6:35 AM 44.6 °F 28.4 °F 53% 29.98 in 10.0 mi Calm Calm - N/A   Clear
6:55 AM 44.6 °F 28.4 °F 53% 29.98 in 10.0 mi Calm Calm - N/A   Clear
7:15 AM 44.6 °F 28.4 °F 53% 29.98 in 10.0 mi Calm Calm - N/A   Clear
7:35 AM 44.6 °F 28.4 °F 53% 29.98 in 10.0 mi Calm Calm - N/A   Clear
7:55 AM 46.4 °F 28.4 °F 50% 29.99 in 10.0 mi Calm Calm - N/A   Clear
8:15 AM 48.2 °F 28.4 °F 46% 30.00 in 10.0 mi Calm Calm - N/A   Clear
8:35 AM 53.6 °F 32.0 °F 44% 30.00 in 10.0 mi Calm Calm - N/A   Clear
8:55 AM 57.2 °F 32.0 °F 38% 30.01 in 10.0 mi Calm Calm - N/A   Clear
9:15 AM 60.8 °F 32.0 °F 34% 30.02 in 7.0 mi Calm Calm - N/A   Clear
9:35 AM 66.2 °F 28.4 °F 24% 30.02 in 10.0 mi Calm Calm - N/A   Clear
9:55 AM 68.0 °F 26.6 °F 21% 30.02 in 10.0 mi Calm Calm - N/A   Clear
10:15 AM 69.8 °F 26.6 °F 20% 30.02 in 10.0 mi Calm Calm - N/A   Clear
10:35 AM 71.6 °F 24.8 °F 17% 30.02 in 10.0 mi Calm Calm - N/A   Clear
10:55 AM 73.4 °F 24.8 °F 16% 30.02 in 10.0 mi Calm Calm - N/A   Clear
11:15 AM 73.4 °F 26.6 °F 18% 30.03 in 10.0 mi South 3.5 mph - N/A   Clear
11:35 AM 75.2 °F 28.4 °F 18% 30.03 in 10.0 mi South 4.6 mph - N/A   Clear
11:55 AM 75.2 °F 26.6 °F 17% 30.03 in 10.0 mi SSW 4.6 mph - N/A   Clear
12:15 PM 75.2 °F 26.6 °F 17% 30.03 in 10.0 mi WSW 5.8 mph - N/A   Clear
12:35 PM 75.2 °F 26.6 °F 17% 30.03 in 10.0 mi SW 4.6 mph - N/A   Clear
12:55 PM 75.2 °F 26.6 °F 17% 30.02 in 10.0 mi WSW 5.8 mph - N/A   Clear
1:15 PM 77.0 °F 26.6 °F 16% 30.02 in 10.0 mi West 5.8 mph - N/A   Clear
1:35 PM 77.0 °F 30.2 °F 18% 30.01 in 10.0 mi West 6.9 mph - N/A   Clear
1:55 PM 77.0 °F 32.0 °F 19% 30.01 in 10.0 mi SW 4.6 mph - N/A   Clear
2:15 PM 77.0 °F 32.0 °F 19% 30.00 in 10.0 mi SW 4.6 mph - N/A   Clear
2:35 PM 77.0 °F 33.8 °F 21% 30.00 in 10.0 mi West 4.6 mph - N/A   Clear
2:55 PM 77.0 °F 33.8 °F 21% 30.00 in 10.0 mi West 5.8 mph - N/A   Clear
3:15 PM 77.0 °F 33.8 °F 21% 30.00 in 10.0 mi WSW 5.8 mph - N/A   Clear
3:35 PM 77.0 °F 32.0 °F 19% 30.00 in 10.0 mi WSW 6.9 mph - N/A   Clear
3:55 PM 77.0 °F 35.6 °F 22% 30.00 in 10.0 mi WSW 8.1 mph - N/A   Clear
4:15 PM 77.0 °F 30.2 °F 18% 30.00 in 10.0 mi West 5.8 mph - N/A   Clear
4:35 PM 75.2 °F 32.0 °F 21% 30.00 in 10.0 mi West 5.8 mph - N/A   Clear
4:55 PM 75.2 °F 32.0 °F 21% 30.01 in 10.0 mi West 5.8 mph - N/A   Clear
5:15 PM 73.4 °F 35.6 °F 25% 30.01 in 10.0 mi West 3.5 mph - N/A   Clear
5:35 PM 71.6 °F 35.6 °F 27% 30.01 in 10.0 mi WNW 4.6 mph - N/A   Clear
5:55 PM 68.0 °F 37.4 °F 33% 30.01 in 10.0 mi WNW 3.5 mph - N/A   Clear
6:15 PM 64.4 °F 37.4 °F 37% 30.02 in 10.0 mi Calm Calm - N/A   Clear
6:35 PM 60.8 °F 37.4 °F 42% 30.03 in 10.0 mi Calm Calm - N/A   Clear
6:55 PM 59.0 °F 37.4 °F 45% 30.03 in 10.0 mi Calm Calm - N/A   Clear
7:15 PM 57.2 °F 37.4 °F 48% 30.03 in 10.0 mi Calm Calm - N/A   Clear
7:35 PM 53.6 °F 37.4 °F 54% 30.04 in 10.0 mi Calm Calm - N/A   Clear
7:55 PM 53.6 °F 37.4 °F 54% 30.05 in 10.0 mi Calm Calm - N/A   Clear
8:15 PM 51.8 °F 35.6 °F 54% 30.05 in 10.0 mi Calm Calm - N/A   Clear
8:35 PM 50.0 °F 35.6 °F 58% 30.06 in 10.0 mi Calm Calm - N/A   Clear
8:55 PM 50.0 °F 35.6 °F 58% 30.07 in 10.0 mi Calm Calm - N/A   Clear
9:15 PM 48.2 °F 35.6 °F 62% 30.07 in 10.0 mi Calm Calm - N/A   Clear
9:35 PM 48.2 °F 35.6 °F 62% 30.08 in 10.0 mi Calm Calm - N/A   Clear
9:55 PM 48.2 °F 35.6 °F 62% 30.08 in 10.0 mi Calm Calm - N/A   Clear
10:15 PM 46.4 °F 35.6 °F 66% 30.08 in 10.0 mi Calm Calm - N/A   Clear
10:35 PM 48.2 °F 37.4 °F 66% 30.07 in 10.0 mi Calm Calm - N/A   Clear
10:55 PM 48.2 °F 37.4 °F 66% 30.07 in 10.0 mi Calm Calm - N/A   Clear
11:15 PM 48.2 °F 35.6 °F 62% 30.08 in 10.0 mi Calm Calm - N/A   Clear
11:35 PM 44.6 °F 35.6 °F 71% 30.08 in 10.0 mi Calm Calm - N/A   Clear
11:55 PM 44.6 °F 35.6 °F 71% 30.09 in 10.0 mi Calm Calm - N/A   Clear